Regional Weather Roundup
Issued by NWS Wakefield, VA

Home | Current Version | Previous Version | Text Only | Print | Product List | Glossary On
Versions: 1 2 3 4 5 6 7 8 9 10 11 12 13 14 15 16 17 18 19 20 21 22 23 24 25 26 27 28
000
ASUS41 KAKQ 161815
RWRAKQ

REGIONAL WEATHER ROUNDUP
NATIONAL WEATHER SERVICE WAKEFIELD VA
200 PM EDT WED AUG 16 2017

Note: "fair" indicates few or no clouds below 12,000 feet with no
significant weather and/or obstructions to visibility. * = Denotes
station may not report precipitation (e.g., rain,snow,etc.),
thunder or fog.

VAZ042-051-052>054-056-161900-
NORTHERN VIRGINIA

CITY           SKY/WX    TMP DP  RH WIND       PRES   REMARKS
WASH NATIONAL  MOSUNNY   89  71  55 N9        30.00S HX  95
DULLES         PTSUNNY   87  69  54 NW8       30.01F
FORT BELVOIR   MOSUNNY   88  69  54 NW3       30.00S
QUANTICO       PTSUNNY   86  77  74 S8        30.00F HX  97
FREDERICKSBRG* MOSUNNY   89  70  54 CALM      30.00S
STAFFORD*      SUNNY     87  69  55 CALM      30.05S
WARRENTON      SUNNY     91  65  42 NE5       30.02S
CULPEPER*      PTSUNNY   88  70  56 CALM      30.02S
MANASSAS*      SUNNY     87  70  56 NW6       30.01F
LEESBURG*      MOSUNNY   86  72  62 W5        30.03S
WINCHESTER     PTSUNNY   82  66  57 NW3       30.03F
FRONT ROYAL*   MOCLDY    82  70  65 CALM      30.03S
LURAY*         PTCLDY    88  66  48 SW5       30.03F
$$

VAZ048-049-060>072-079>083-161900-
CENTRAL AND SOUTH CENTRAL VIRGINIA

CITY           SKY/WX    TMP DP  RH WIND       PRES   REMARKS
RICHMOND       MOSUNNY   88  70  55 VRB3      30.01F
CHESTERFIELD*  MOCLDY    88  70  55 VRB5      30.02F
PETERSBURG*    PTSUNNY   85  67  53 CALM      30.03S
HANOVER        MOSUNNY   87  70  56 CALM      30.02F
TAPPAHANNOCK*  SUNNY     88  68  52 N5        30.02S
QUINTON*       FAIR      86  74  66 CALM      30.01S
CHARLOTTSVILLE SUNNY     90  67  46 SW5       30.02F
GORDONSVILLE*  CLEAR     88  68  52 CALM      30.01F
ORANGE*        PTSUNNY   86  66  51 CALM      30.01F
LOUISA*        MOSUNNY   86  64  48 CALM      30.02F
BUMPASS*       FAIR      86  70  60 CALM      30.02S
FARMVILLE*     MOSUNNY   90  63  41 SE3       30.01F
CREWE*         MOCLDY    85  65  50 S3        30.03S
FORT PICKETT*  MOCLDY   N/A N/A N/A NE3       30.03F
CHASE CITY*    MOCLDY    88  70  55 SE3       30.04S
CLARKSVILLE*   FAIR      82  72  69 E3        30.03F
SOUTH HILL*    PTSUNNY   85  74  68 CALM      30.09S
LAWRENCEVILLE* FAIR      85  71  61 MISG      30.03S
EMPORIA*       MOSUNNY   86  70  58 N5        30.03S
$$

VAZ088>098-161900-
SOUTHEAST VIRGINIA

CITY           SKY/WX    TMP DP  RH WIND       PRES   REMARKS
NORFOLK        SUNNY     85  74  69 N7        30.02R
VIRGINIA BEACH PTSUNNY   85  72  65 NE7       30.01R
NORFOLK NAVAL  MOSUNNY   86  73  65 E7        30.03R
WEST POINT*    MOSUNNY   86  69  56 CALM      30.02S
SALUDA*        FAIR      84  76  79 E7        30.01R
NEWPORT NEWS   SUNNY     87  70  56 N5        30.01R
LANGLEY AFB    MOSUNNY   84  74  71 E8        30.01S
FORT EUSTIS    SUNNY     89  73  58 NW6       29.99S HX  97
WILLIAMSBURG*  SUNNY     91  72  52 CALM      30.02S HX  98
HR EXEC AP*    FAIR      88  72  58 E5        29.98S
FRANKLIN*      PTSUNNY   85  71  62 N3        30.02R
US460-WAKEFLD  SUNNY     88  71  57 NW6       30.01F
$$

VAZ020-022-025-037-045-161900-
WEST CENTRAL AND SOUTHWEST VIRGINIA

CITY           SKY/WX    TMP DP  RH WIND       PRES   REMARKS
STAUNTON*      SUNNY     85  66  53 N5        30.08S
WAYNESBORO*    PTCLDY    85  65  49 W5        30.08S
HOT SPRINGS VA MOSUNNY   77  55  47 CALM      30.23R
LYNCHBURG      MOSUNNY   87  67  51 NW3       30.06S
DANVILLE       CLOUDY    88  73  61 VRB3      30.04F HX  95
SOUTH BOSTON*  FAIR      87  68  52 CALM      30.04S
MARTINSVILLE   MOSUNNY   88  68  50 CALM      30.08S
ROANOKE        PTSUNNY   90  66  45 W5        30.08F
BLACKSBURG     MOSUNNY   83  68  60 W5        30.15F
DUBLIN*        MOSUNNY   84  68  57 CALM      30.14
MARION*        PTSUNNY   81  63  54 NW3       30.17F
HILLSVILLE*    MOSUNNY   81  57  44 CALM      30.16S
RICHLANDS*     MOCLDY    80  65  61 NW3       30.17S
WISE*          PTSUNNY   73  73 100 E3        30.18F
ABINGDON*      CLOUDY    84  71  65 W6        30.13F
$$

MDZ021>025-VAZ099-100-161900-
SOUTHERN MARYLAND AND THE DELMARVA PENINSULA

CITY           SKY/WX    TMP DP  RH WIND       PRES   REMARKS
PATUXENT RIVER MOSUNNY   86  75  69 CALM      30.00S HX  95
BAY BRIDGE APT MOSUNNY   84  72  65 CALM      30.00S
LEONARDTOWN    MOSUNNY   86  72  62 CALM      30.02R
DOVER          MOSUNNY   86  70  58 CALM      29.96S
GEORGETOWN     MOSUNNY   87  69  54 VRB3      29.99S
EASTON         MOSUNNY   86  73  66 NW6       30.03S
CAMBRIDGE      SUNNY     86  73  66 N8        29.99S
SALISBURY      MOSUNNY   87  70  56 CALM      29.99S
OCEAN CITY     MOSUNNY   80  73  79 SE7       30.00S
WALLOPS ISLAND PTSUNNY   83  74  74 NE6       30.00F
ACCOMACK*      MOSUNNY   85  73  67 NW3       30.00S
$$

NCZ012>017-030>032-161900-
NORTH CENTRAL AND EASTERN NORTH CAROLINA

CITY           SKY/WX    TMP DP  RH WIND       PRES   REMARKS
ROANOKE RAPIDS MOCLDY    84  72  65 CALM      30.03S
RALEIGH        MOSUNNY   90  70  51 N6        30.04S HX  95
ELIZABETH CITY PTSUNNY   86  77  74 E9        30.00S HX  97
AHOSKIE*         N/A     84  72  66 CALM      30.02S
EDENTON*       CLOUDY    85  76  74 SW5       30.01S HX  95
CURRITUCK*     MOSUNNY   84  53  34 NE9       30.02S
KILL DEVIL HLS SUNNY     81  74  79 N6        30.01R
MANTEO         MOSUNNY   82  75  80 NE10      30.02R
CAPE HATTERAS  MOSUNNY   87  77  72 NE8       29.99S HX  99
TARBORO*       NOT AVBL
GOLDSBORO      MOSUNNY   86  79  79 NE6       30.01F HX  99
WASHINGTON     MOSUNNY   86  75  70 N5        30.01S HX  95
GREENVILLE     MOSUNNY   86  73  66 NE5       30.03S
NEW BERN       PTSUNNY   86  77  74 CALM      30.01F HX  97
WILMINGTON     MOSUNNY   92  75  57 VRB5      29.99F HX 103
$$

VAZ048-161900-
ELSEWHERE

CITY           SKY/WX    TMP DP  RH WIND       PRES   REMARKS
HARRISBURG PA  MOSUNNY   84  66  54 NW12      30.00S
BALTIMORE      MOSUNNY   87  71  58 VRB3      29.99S
ANNAPOLIS      MOSUNNY   84  80  88 SE10      29.99S HX  97
ANDREWS AFB    MOSUNNY   86  68  54 CALM      29.99F
PHILADELPHIA   PTSUNNY   86  67  52 VRB7      29.98S
HENDERSON NC   MOSUNNY   84  68  58 E3        30.04F
GREENSBORO     PTSUNNY   86  72  62 N6        30.05S
ROCKY MOUNT    MOSUNNY   83  74  74 N6        30.03F
$$

VAZ100-161900-
MARINE

STATION/POSITION TIME  TEMP    WIND        PRES    WAVE   SWELL
                       AIR SEA DIR/SP/G            HT/PER HT/PER
                 (UTC) (F)     (DEG/KT/KT) (MB)    (FT/S) (FT/S)
BRANDYWINE LGT   1742   78     330/  3/  3 1015.7F
CAPE MAY NJ      1748   79 78  310/  5/  7 1014.9F
LEWES DE         1748   79 77   50/  3/  3 1015.2F
15NM E FENWICK I 1750   76 78   CALM  /  2 1016.2F   4/ 9   3/ 9
OCEAN-CITY-INLET 1748   79 77  190/  5/  7 1016.2S
WACHAPREAGUE VA  1748   79 82  110/  7/  9 1015.9F
THOMAS POINT MD  1800   80 79  150/  4/  4   N/A
GOOSES REEF MD   1800   81 81  110/  4/  4 1016.6    0
COVE POINT MD    1748   80     160/  3/  4 1016.5F
SOLOMONS ISLAND  1706   84 81  260/  5/  6   N/A
BISHOPS HEAD MD  1748   81 82  250/  7/  8 1016.0F
PINEY POINT MD   1748          300/  5/  5   N/A
POTOMAC MD       1800   81 83     CALM     1015.5    0
CAMBRIDGE MD     1748   86 81              1016.6S
LEWISETTA VA     1748   82 81   70/  5/  5 1016.0R
RAPPAHANNOCK LGT 1748           20/  6/  7 1016.9R
STINGRAY PT      1800   79 81   90/  6/  8 1016.6    1/ 2
YORK RVR RNG VA  1748   80     110/  6/  6 1016.6R
YORKTOWN VA      1748   83 81  100/  3/  4 1015.9R
JAMESTOWN VA     1800      83  280/  8/  8   N/A     0
DOMINION TERM VA 1748   80     120/  7/  8 1016.5R
KIPTOPEKE VA     1748      80  180/  8/ 12   N/A
CHES BAY BRIDGE  1748   78 79   10/  8/ 10 1016.3R
CAPE HENRY VA    1748   78     350/  7/  9   N/A
WILLOUBY STN VA  1748   79      60/  8/  9 1016.6R
S CRANEY ISL VA  1748   82      20/  5/  7 1016.2R
CAPE HENRY BUOY  1800      78                N/A     2/ 9   2/11
1ST LANDING BUOY 1800   79 80              1016.3    2/ 3
64NM E OF VA BCH 1750   78 79   10/  8/  8 1016.5R   3/ 8   3/ 8
DUCK PIER NC     1748   78 80   30/ 11/ 11 1016.0R
44100 DUCK FRF   1705      79                N/A     3/ 9
44056 DUCK FRF   1800      80                N/A     3/ 8
OREGON INLET NC  1736   80 83   10/  7/ 10 1016.2R
HATTERAS NC      1748   82 84   30/ 10/ 13 1015.7R
DIAMOND SHLS NC  1750   80 83   10/ 10/ 10 1015.3S   3/ 8   2/ 8
CAPE LOOKOUT NC  1800   79     130/  4/  5 1015.4R
$$




USA.gov is the U.S. government's official web portal to all federal, state and local government web resources and services.